Baker, MT

1:38 PM MDT on October 18, 2017 (GMT -0600)
Baker Municipal

Weather History for KBHK - March, 2013

Change the Weather History Date:

Thursday, March 21, 2013

  Actual Average Record
Temperature  
Mean Temperature 23 °F -  
Max Temperature 30 °F 55 °F 72 °F (2016)
Min Temperature 16 °F 31 °F -27 °F (2002)
Degree Days  
Heating Degree Days 42    
Moisture  
Dew Point 16 °F    
Average Humidity 70    
Maximum Humidity 86    
Minimum Humidity 49    
Precipitation  
Precipitation 0.09 in - - ()
Sea Level Pressure  
Sea Level Pressure 29.81 in    
Wind  
Wind Speed 17 mph (SE)    
Max Wind Speed 29 mph    
Max Gust Speed 39 mph    
Visibility 4 miles    
Events Fog , Snow    
Averages and records for this station are not official NWS values.
T = Trace of Precipitation, MM = Missing Value Source: NWS Daily Summary

Daily Weather History Graph

Daily Weather History Graph

Search for Another Location

Airport or City:

Trip Planner

Search our weather history database for the weather conditions in past years. The results will help you decide how hot, cold, wet, or windy it might be!

Date:

Astronomy

Mar. 21, 2013 Rise Set
Actual Time 6:57 AM MDT 7:11 PM MDT
Civil Twilight 6:27 AM MDT 7:41 PM MDT
Nautical Twilight 5:52 AM MDT 8:16 PM MDT
Astronomical Twilight 5:15 AM MDT 8:53 PM MDT
Moon 1:27 PM MDT (3/21) 3:37 AM MDT (3/21)
Length of Visible Light 13h 14m
Length of Day
12h 13m
Waxing Gibbous, 69% of the Moon is Illuminated
Mar 21
Waxing Gibbous
Mar 27
Full
Apr 2
Last Quarter
Apr 10
New
Apr 18
First Quarter

Hourly Weather History & Observations

Time (MDT) Temp. Windchill Dew Point Humidity Pressure Visibility Wind Dir Wind Speed Gust Speed Precip Events Conditions
12:51 AM 24.1 °F 8.0 °F 9.0 °F 53% 29.80 in 10.0 mi ESE 25.3 mph 34.5 mph N/A   Overcast
1:51 AM 23.0 °F 6.9 °F 8.1 °F 53% 29.79 in 10.0 mi SE 24.2 mph 38.0 mph N/A   Overcast
3:51 AM 21.0 °F 3.6 °F 6.1 °F 53% 29.74 in 10.0 mi SE 26.5 mph 38.0 mph N/A   Overcast
4:51 AM 19.0 °F 0.3 °F 5.0 °F 54% 29.74 in 10.0 mi SE 28.8 mph 39.1 mph N/A   Overcast
6:51 AM 16.0 °F -2.8 °F 3.9 °F 59% 29.75 in 10.0 mi ESE 25.3 mph 33.4 mph N/A   Clear
7:51 AM 17.1 °F -0.6 °F 5.0 °F 59% 29.76 in 10.0 mi ESE 23.0 mph 34.5 mph N/A   Overcast
8:51 AM 18.0 °F 4.8 °F 6.1 °F 60% 29.78 in 10.0 mi ESE 12.7 mph - N/A   Overcast
9:51 AM 19.9 °F 5.7 °F 6.1 °F 55% 29.81 in 10.0 mi ESE 16.1 mph - N/A   Overcast
10:51 AM 23.0 °F 8.3 °F 9.0 °F 55% 29.79 in 10.0 mi SE 19.6 mph - N/A   Overcast
11:51 AM 27.0 °F 13.2 °F 10.0 °F 49% 29.79 in 10.0 mi ESE 20.7 mph 24.2 mph N/A   Overcast
1:51 PM 26.1 °F 13.6 °F 12.0 °F 55% 29.83 in 10.0 mi ESE 16.1 mph - N/A   Overcast
2:51 PM 28.9 °F 19.2 °F 12.9 °F 51% 29.83 in 10.0 mi SE 11.5 mph - N/A   Overcast
3:51 PM 30.0 °F 20.0 °F 15.1 °F 54% 29.84 in 10.0 mi SE 12.7 mph - 0.00 in   Overcast
4:51 PM 27.0 °F 15.6 °F 15.1 °F 61% 29.86 in 7.0 mi ESE 13.8 mph - 0.00 in Snow Light Snow
5:12 PM 26.6 °F 15.7 °F 17.6 °F 69% 29.76 in 1.5 mi SE 12.7 mph - 0.00 in Snow Light Snow
5:20 PM 26.6 °F 16.2 °F 17.6 °F 69% 29.76 in 0.8 mi SE 11.5 mph - 0.00 in Snow Light Snow
5:32 PM 26.6 °F 16.8 °F 17.6 °F 69% 29.77 in 1.0 mi SE 10.4 mph - 0.00 in Snow Light Snow
5:51 PM 26.1 °F 16.2 °F 19.0 °F 75% 29.88 in 1.2 mi SE 10.4 mph - 0.00 in Snow Light Snow
6:02 PM 26.6 °F 17.5 °F 19.4 °F 74% 29.78 in 0.8 mi SE 9.2 mph - 0.00 in Snow Light Snow
6:16 PM 26.6 °F 18.2 °F 19.4 °F 74% 29.78 in 1.0 mi SE 8.1 mph - 0.00 in Snow Light Snow
6:23 PM 26.6 °F 19.1 °F 19.4 °F 74% 29.79 in 1.5 mi SE 6.9 mph - 0.00 in Snow Light Snow
6:30 PM 26.6 °F 19.1 °F 19.4 °F 74% 29.79 in 2.0 mi SE 6.9 mph - 0.00 in Snow Light Snow
6:38 PM 26.6 °F 19.1 °F 19.4 °F 74% 29.79 in 1.8 mi SE 6.9 mph - 0.00 in Snow Light Snow
6:51 PM 26.1 °F 17.6 °F 19.9 °F 78% 29.91 in 0.8 mi SE 8.1 mph - 0.00 in Snow Light Snow
7:01 PM 24.8 °F 16.1 °F 19.4 °F 80% 29.80 in 0.8 mi SE 8.1 mph - 0.00 in Snow Light Snow
7:11 PM 24.8 °F 17.9 °F 19.4 °F 80% 29.80 in 1.0 mi ESE 5.8 mph - 0.00 in Snow Light Snow
7:24 PM 24.8 °F 16.9 °F 21.2 °F 86% 29.81 in 1.2 mi ESE 6.9 mph - 0.01 in Snow Light Snow
7:33 PM 24.8 °F 16.1 °F 21.2 °F 86% 29.81 in 1.2 mi ESE 8.1 mph - 0.01 in Snow Light Snow
8:37 PM 24.8 °F 15.3 °F 21.2 °F 86% 29.82 in 2.0 mi ESE 9.2 mph - 0.02 in Snow Light Snow
8:45 PM 24.8 °F 16.1 °F 21.2 °F 86% 29.82 in 1.5 mi ESE 8.1 mph - 0.02 in Snow Light Snow
9:00 PM 24.8 °F 17.9 °F 21.2 °F 86% 29.82 in 0.8 mi ESE 5.8 mph - 0.01 in Snow Light Snow
9:12 PM 24.8 °F 15.3 °F 21.2 °F 86% 29.82 in 0.5 mi ESE 9.2 mph - 0.02 in Fog , Snow Snow
9:51 PM 25.0 °F 14.2 °F 21.0 °F 85% 29.92 in 0.8 mi SE 11.5 mph - 0.03 in Snow Light Snow
10:39 PM 24.8 °F 15.3 °F 19.4 °F 80% 29.82 in 0.8 mi SSE 9.2 mph - 0.01 in Snow Light Snow
10:51 PM 25.0 °F 16.3 °F 19.9 °F 81% 29.92 in 0.8 mi SSE 8.1 mph - 0.01 in Snow Light Snow
11:26 PM 24.8 °F 16.9 °F 21.2 °F 86% 29.83 in 0.5 mi SSE 6.9 mph - 0.03 in Fog , Snow Snow
11:51 PM 25.0 °F 17.1 °F 21.0 °F 85% 29.92 in 0.8 mi SSE 6.9 mph - 0.05 in Snow Light Snow